OPS 4682 DEB, 59151

Orbit data source: Space-Track

OPS 4682 DEB, 59151 is space debris in LEO originally from a launch on Sat, 03 Apr 1965 UTC launched from the Air Force Western Test Range (AFWTR). Debris objects in space refer to the collection of defunct objects orbiting the Earth. Examples of debris include non-operational satellites, rocket bodies, and fragments generated from explosions, collisions, or faulty payload assembly.

Loading next visibility...
Identifier
59151, 1965-027HT
Orbit
LEO
Country
Flag of USUS
Related business
Manufacturer
Unknown
Mission
Spacecraft
Bus & Motor
Unknown
Mass
Unknown
Launch date (UTC)
1965-04-03 (61 years ago)
Launch vehicle
Unknown
Launch site
Air Force Western Test Range (AFWTR)
Object type
Payload
Rocket body
Debris
Shape & HBR
Unknown shape, 0.1 m
Radar Cross Section
Medium (>0.1 m² and <1 m²)

Expand to show TLE details & history
Last TLE update: 5 days ago

TLE from 5 days ago
0 OPS 4682 DEB
1 59151U 65027HT  26259.02847672  .00000072  00000-0  21847-3 0  9995
2 59151  90.2406   3.1821 0037010 184.7686 175.3088 12.98138504475548
Epoch: 2026-09-16T00:41Z
TLE epoch observation values (Epoch: 2026-09-16T00:41:00.388Z)
Latitude
-0°
Longitude
-2.05547°
Altitude
1,300.484 km
Speed
7.193 km/s
True Right ascension
00h 12m 43s
True Declination
0° 00' 00"
Sunlit
Object was in full shadow at epoch
Visualization orbit readout
Latitude
Unknown
Longitude
Unknown
Altitude
Unknown
Speed
Unknown
Apparent Right ascension
Unknown
Apparent Declination
Unknown
Sunlit
N/A
Visualization observer readout
Local Sidereal Time
20:49:37
Azimuth
Unknown
Elevation
Unknown
Doppler factor
Unknown
Orbital elements
Apogee altitude
1,294.811 km
Perigee altitude
1,238.226 km
Semi-major axis
7,644.656 km
Eccentricity
0.0037
Inclination
90.2406°
RAAN
3.1821°
Arg. of periapsis
184.7686°
True anomaly
175.34333°
Mean anomaly
175.3088°
Eccentric anomaly
175.32608°
Mean motion
3.24718 °/min
Orbital period
110.87 mins
BSTAR
0.00021847
Loading maneuver chart data...
Computing Atmospheric mass density...
Loading historical data...
Loading historical data...
Loading historical data...
Loading historical data...
Loading historical data...
Loading historical data...
Loading historical data...

Documentation

Showing up to 5 results
|